Вернуться в каталог

THORAD AGENA D DEB

АктивенLEO
NORAD 42541·DEBRIS·🇺🇸 United States

Запущен Apr 8, 1970 с Vandenberg Space Force Base

Loading…

Ближайшие Пролёты (ближайшие 24 часа)

TLE

СвежийSource: Space-Track

Эпоха: Sep 14, 2026, 06:01 UTC

1 42541U 70025SX  26257.25102396  .00000326  00000-0  40183-3 0  9990
2 42541 100.0540 165.0356 0033842 358.0680 151.8608 13.73473511641133

Отслеживайте THORAD AGENA D DEB в реальном времени с AllMySat

Download on the App Store